| time (UTC) | temp C | wind direction | speed KPH | gust KPH | rain 1hr cm | rain 24hr cm | rain mn cm | humidity % | barometer mb |
| 20260505210652 | -17 | 0.0 | 0.0 | 0.00 | 0.00 | 0.00 | |||
| 20260505203652 | -17 | 0.0 | 0.0 | 0.00 | 0.00 | 0.00 | |||
| 20260505200651 | -17 | 0.0 | 0.0 | 0.00 | 0.00 | 0.00 | |||
| 20260505193651 | -17 | 0.0 | 0.0 | 0.00 | 0.00 | 0.00 | |||
| 20260505190651 | -17 | 0.0 | 0.0 | 0.00 | 0.00 | 0.00 | |||
| 20260505183650 | -17 | 0.0 | 0.0 | 0.00 | 0.00 | 0.00 | |||
| 20260505180650 | -17 | 0.0 | 0.0 | 0.00 | 0.00 | 0.00 | |||
| 20260505173650 | -17 | 0.0 | 0.0 | 0.00 | 0.00 | 0.00 | |||
| 20260505170649 | -17 | 0.0 | 0.0 | 0.00 | 0.00 | 0.00 | |||
| 20260505163649 | -17 | 0.0 | 0.0 | 0.00 | 0.00 | 0.00 | |||
| 20260505160649 | -17 | 0.0 | 0.0 | 0.00 | 0.00 | 0.00 | |||
| 20260505150648 | -17 | 0.0 | 0.0 | 0.00 | 0.00 | 0.00 | |||
| 20260505122834 | 17 | 0.0 | 0.0 | 0.00 | 0.00 | 0.00 | 99 | ||
| 20260505115838 | 17 | 0.0 | 0.0 | 0.00 | 0.00 | 0.00 | 99 | ||
| 20260505112833 | 17 | 0.0 | 0.0 | 0.00 | 0.00 | 0.00 | 99 | ||
| 20260505095832 | 17 | 0.0 | 0.0 | 0.00 | 0.00 | 0.00 | 99 | ||
| 20260505092832 | 17 | 0.0 | 0.0 | 0.00 | 0.00 | 0.00 | 99 | 1011.6 | |
| 20260505085832 | 17 | 0.0 | 0.0 | 0.00 | 0.00 | 0.00 | 99 | 999.6 | |
| 20260505082831 | 17 | 0.0 | 0.0 | 0.00 | 0.00 | 0.00 | 99 | 1011.0 | |
| 20260505075831 | 15 | 0.0 | 0.0 | 0.00 | 0.00 | 0.00 | 99 | 1011.3 | |
| 20260505072831 | 16 | 0.0 | 0.0 | 0.00 | 0.00 | 0.00 | 99 | 1010.5 | |
| 20260505065830 | 16 | 0.0 | 0.0 | 0.00 | 0.00 | 0.00 | 99 | 1010.3 | |
| 20260505062830 | 15 | 0.0 | 0.0 | 0.00 | 0.00 | 0.00 | 99 | 1010.1 | |
| 20260505055829 | 15 | 0.0 | 0.0 | 0.00 | 0.00 | 0.00 | 99 | 1009.8 | |
| 20260505052829 | 17 | 0.0 | 0.0 | 0.00 | 0.00 | 0.00 | 99 | 1009.6 | |
| 20260505035352 | 13 | 0.0 | 0.0 | 0.00 | 0.00 | 0.00 | 99 | 1008.2 | |
| 20260505032351 | 13 | 0.0 | 0.0 | 0.00 | 0.00 | 0.00 | 99 | 1009.7 | |
| 20260505025351 | 14 | 0.0 | 0.0 | 0.00 | 0.00 | 0.00 | 99 | 1011.0 | |
| 20260505022351 | 14 | 0.0 | 0.0 | 0.00 | 0.00 | 0.00 | 99 | 1010.5 | |
| 20260505015350 | 14 | 0.0 | 0.0 | 0.00 | 0.00 | 0.00 | 99 | 1009.6 | |
| 20260505012350 | 15 | 0.0 | 0.0 | 0.00 | 0.00 | 0.00 | 99 | 1009.6 | |
| 20260505005350 | 15 | 0.0 | 0.0 | 0.00 | 0.00 | 0.00 | 99 | 1009.3 | |
| 20260505002349 | 16 | 0.0 | 0.0 | 0.00 | 0.00 | 0.00 | 99 | 1010.4 | |
| 20260504235349 | 15 | 0.0 | 0.0 | 0.00 | 0.00 | 0.00 | 99 | 1010.1 | |
| 20260504232349 | 16 | 0.0 | 0.0 | 0.00 | 0.00 | 0.00 | 99 | 1011.2 | |
| 20260504225348 | 16 | 0.0 | 0.0 | 0.00 | 0.00 | 0.00 | 99 | 1012.7 | |
| 20260504222348 | 16 | 0.0 | 0.0 | 0.00 | 0.00 | 0.00 | 99 | 1001.6 | |
| 20260504215348 | 17 | 0.0 | 0.0 | 0.00 | 0.00 | 0.00 | 99 | 1014.4 | |
| 20260504212347 | 16 | 0.0 | 0.0 | 0.00 | 0.00 | 0.00 | 99 | 1015.2 |